FW6809 Weather Reports


Display with metric or nautical units.
time (UTC)temp
F
wind
direction
speed
MPH
gust
MPH
rain 1hr
in
rain 24hr
in
rain mn
in
humidity
%
barometer
mb
20260905110109 68 0 0.0 0.0 0.00 0.00 0.00 100 1016.8
20260905104601 69 0 0.0 0.0 0.00 0.00 0.00 100 1016.8
20260905103056 69 0 0.0 0.0 0.00 0.00 0.00 100 1016.7
20260905101609 69 0 0.0 0.0 0.00 0.00 0.00 100 1016.5
20260905100056 69 0 0.0 0.0 0.00 0.00 0.00 100 1016.4
20260905094602 69 0 0.0 0.0 0.00 0.00 0.00 100 1016.5
20260905093120 69 0 0.0 0.0 0.00 0.00 0.00 100 1016.6
20260905091605 69 0 0.0 0.0 0.00 0.00 0.00 100 1016.5
20260905090055 69 0 0.0 0.0 0.00 0.00 0.00 100 1016.4
20260905084554 70 0 0.0 0.0 0.00 0.00 0.00 100 1016.4
20260905083048 70 0 0.0 0.0 0.00 0.00 0.00 100 1016.5
20260905081558 70 0 0.0 0.0 0.00 0.00 0.00 100 1016.6
20260905080104 70 0 0.0 0.0 0.00 0.00 0.00 99 1016.7
20260905074554 70 0 0.0 0.0 0.00 0.00 0.00 99 1016.6
20260905073058 70 0 0.0 0.0 0.00 0.00 0.00 99 1016.6
20260905071556 71 0 0.0 0.0 0.00 0.00 0.00 99 1016.5
20260905070106 71 0 0.0 0.0 0.00 0.00 0.00 99 1016.6
20260905064553 71 0 0.0 0.0 0.00 0.00 0.00 99 1016.6
20260905063059 71 0 0.0 0.0 0.00 0.00 0.00 99 1016.7
20260905061605 71 0 0.0 0.0 0.00 0.00 0.00 99 1016.6
20260905060055 71 0 0.0 0.0 0.00 0.00 0.00 99 1016.7
20260905054556 71 0 0.0 0.0 0.00 0.00 0.00 99 1016.7
20260905053047 71 0 0.0 0.0 0.00 0.00 0.00 98 1016.8
20260905051556 72 0 0.0 0.0 0.00 0.00 0.00 98 1017.2
20260905050055 72 0 0.0 0.0 0.00 0.00 0.00 98 1017.4
20260905044609 72 0 0.0 0.0 0.00 0.00 0.00 98 1017.5
20260905043059 72 0 0.0 0.0 0.00 0.00 0.00 98 1017.5
20260905041555 72 0 0.0 0.0 0.00 0.00 0.00 97 1017.6
20260905040057 73 0 0.0 0.0 0.00 0.00 0.00 97 1017.6
20260905034551 73 0 0.0 0.0 0.00 0.00 0.00 96 1017.7
20260905033057 73 0 0.0 0.0 0.00 0.00 0.00 96 1017.8
20260905031604 74 0 0.0 0.0 0.00 0.00 0.00 95 1018.0
20260905030100 74 0 0.0 0.0 0.00 0.00 0.00 95 1018.0
20260905024602 75 0 0.0 0.0 0.00 0.00 0.00 95 1018.1
20260905023057 75 0 0.0 0.0 0.00 0.00 0.00 94 1018.2
20260905021556 75 0 0.0 0.0 0.00 0.00 0.00 94 1018.3
20260905014559 76 0 0.0 0.0 0.00 0.00 0.00 93 1018.1
20260905013059 77 0 0.0 0.0 0.00 0.00 0.00 92 1018.2
20260905011555 77 0 0.0 0.0 0.00 0.00 0.00 92 1017.9
20260905004629 79 0 0.0 0.0 0.00 0.00 0.00 91 1017.8
20260905003055 81 0 0.0 0.0 0.00 0.00 0.00 91 1017.7
20260905001553 81 0 0.0 0.0 0.00 0.00 0.00 89 1017.7
20260905000059 82 0 0.0 0.0 0.00 0.00 0.00 88 1017.6
20260904234557 83 0 0.0 0.0 0.00 0.00 0.00 87 1017.4
20260904233100 84 0 0.0 0.0 0.00 0.00 0.00 86 1017.3
20260904231604 85 0 0.0 0.0 0.00 0.00 0.00 83 1017.1
20260904230128 86 0 0.0 0.0 0.00 0.00 0.00 79 1017.2
20260904224601 88 0 0.0 0.0 0.00 0.00 0.00 73 1017.0
20260904223051 89 0 0.0 0.0 0.00 0.00 0.00 68 1016.9
20260904221554 89 0 0.0 0.0 0.00 0.00 0.00 63 1016.8
20260904214554 90 0 0.0 3.0 0.00 0.00 0.00 63 1016.9
20260904213055 91 108 0.0 3.0 0.00 0.00 0.00 61 1016.8
20260904211601 92 0 0.0 5.0 0.00 0.00 0.00 61 1017.1
20260904210109 92 0 0.0 4.0 0.00 0.00 0.00 61 1017.2
20260904204605 91 0 0.0 3.0 0.00 0.00 0.00 61 1017.2
20260904203101 91 145 0.0 3.0 0.00 0.00 0.00 63 1017.4
20260904201604 91 0 0.0 4.0 0.00 0.00 0.00 63 1017.5
20260904200106 89 0 0.0 0.0 0.00 0.00 0.00 66 1017.7
20260904194609 91 174 0.0 4.0 0.00 0.00 0.00 63 1017.9
20260904193057 90 0 0.0 4.0 0.00 0.00 0.00 63 1018.1
20260904191554 91 117 0.0 4.0 0.00 0.00 0.00 62 1018.2
20260904190057 90 0 0.0 3.0 0.00 0.00 0.00 67 1018.5
20260904184601 92 220 0.0 5.0 0.00 0.00 0.00 64 1018.8
20260904183112 92 0 0.0 0.0 0.00 0.00 0.00 64 1019.2
20260904181554 89 0 0.0 0.0 0.00 0.00 0.00 68 1019.1
20260904174557 92 143 0.0 1.0 0.00 0.00 0.00 64 1019.5
20260904173104 90 0 0.0 3.0 0.00 0.00 0.00 69 1019.6
20260904171559 89 0 0.0 1.0 0.00 0.00 0.00 70 1019.9
20260904170058 90 0 0.0 3.0 0.00 0.00 0.00 70 1020.0
20260904164600 90 117 0.0 2.0 0.00 0.00 0.00 71 1020.1
20260904163108 89 0 0.0 2.0 0.00 0.00 0.00 70 1020.2
20260904161601 89 0 0.0 1.0 0.00 0.00 0.00 71 1020.4
20260904160106 88 138 0.0 1.0 0.00 0.00 0.00 71 1020.6
20260904154555 88 0 0.0 2.0 0.00 0.00 0.00 71 1020.5
20260904153108 89 0 0.0 0.0 0.00 0.00 0.00 71 1020.6
20260904151558 88 0 0.0 0.0 0.00 0.00 0.00 75 1020.7
20260904150106 86 0 0.0 0.0 0.00 0.00 0.00 77 1020.5
20260904144554 86 0 0.0 0.0 0.00 0.00 0.00 77 1020.4
20260904143102 87 0 0.0 0.0 0.00 0.00 0.00 75 1020.6
20260904141559 86 0 0.0 0.0 0.00 0.00 0.00 80 1020.6
20260904140106 85 0 0.0 0.0 0.00 0.00 0.00 78 1020.5
20260904134554 85 0 0.0 0.0 0.00 0.00 0.00 79 1020.3
20260904133104 85 0 0.0 0.0 0.00 0.00 0.00 81 1020.4
20260904131555 83 0 0.0 0.0 0.00 0.00 0.00 84 1020.5
20260904130104 81 0 0.0 0.0 0.00 0.00 0.00 88 1020.3
20260904124602 77 0 0.0 0.0 0.00 0.00 0.00 92 1020.4
20260904123057 73 0 0.0 0.0 0.00 0.00 0.00 97 1020.5
20260904121556 72 0 0.0 0.0 0.00 0.00 0.00 99 1020.3
20260904120108 70 0 0.0 0.0 0.00 0.00 0.00 100 1020.2
20260904114604 70 0 0.0 0.0 0.00 0.00 0.00 100 1020.1
20260904113057 70 0 0.0 0.0 0.00 0.00 0.00 99 1020.1
20260904111557 70 0 0.0 0.0 0.00 0.00 0.00 99 1019.8